Terminal Aerodrome Forecast
Issued by NWS Knoxville/Tri Cities, TN

Home | Current Version | Previous Version | Text Only | Print | Product List | Glossary On
Versions: 1 2 3 4 5 6 7 8 9 10 11 12 13 14 15 16 17 18 19 20 21 22 23 24 25 26 27 28 29 30 31
000
FTUS44 KMRX 010533
TAFTRI
TAF
KTRI 010533Z 0106/0206 VRB03KT P6SM BKN100
     FM011200 VRB03KT P6SM OVC050
     FM012100 VRB04KT P6SM OVC020
     FM020000 VRB02KT P6SM OVC012
     FM020300 VRB02KT 4SM -SHRA BR OVC007=

USA.gov is the U.S. government's official web portal to all federal, state and local government web resources and services.